Gulkana, AK

12:44 PM AKDT on March 24, 2017 (GMT -0800)
Gulkana

Weather History for PAGK - January, 2013

Change the Weather History Date:

Saturday, January 19, 2013

  Actual Average Record
Temperature  
Mean Temperature 2 °F -  
Max Temperature 7 °F 8 °F 41 °F (1963)
Min Temperature -2 °F -8 °F -51 °F (1971)
Degree Days  
Heating Degree Days 62    
Moisture  
Dew Point -3 °F    
Average Humidity 72    
Maximum Humidity 83    
Minimum Humidity 57    
Precipitation  
Precipitation 0.00 in - - ()
Snow  
Snow 0.00 in - - ()
Snow Depth 1.00 in    
Sea Level Pressure  
Sea Level Pressure 30.39 in    
Wind  
Wind Speed 1 mph (NNW)    
Max Wind Speed 5 mph    
Max Gust Speed -    
Visibility 10 miles    
Events Snow    
Averages and records for this station are not official NWS values.
T = Trace of Precipitation, MM = Missing Value Source: NWS Daily Summary

Daily Weather History Graph

Daily Weather History Graph

Search for Another Location

Airport or City:

Trip Planner

Search our weather history database for the weather conditions in past years. The results will help you decide how hot, cold, wet, or windy it might be!

Date:

Astronomy

Jan. 19, 2013 Rise Set
Actual Time 9:38 AM AKST 4:07 PM AKST
Civil Twilight 8:41 AM AKST 5:04 PM AKST
Nautical Twilight 7:43 AM AKST 6:02 PM AKST
Astronomical Twilight 6:50 AM AKST 6:55 PM AKST
Moon 11:01 AM AKST (1/19) 2:54 AM AKST (1/19)
Length of Visible Light 8h 23m
Length of Day
6h 28m
First Quarter, 58% of the Moon is Illuminated
Jan 19
First Quarter
Jan 26
Full
Feb 3
Last Quarter
Feb 9
New
Feb 17
First Quarter

Hourly Weather History & Observations

Time (AKST) Temp. Windchill Dew Point Humidity Pressure Visibility Wind Dir Wind Speed Gust Speed Precip Events Conditions
12:53 AM 3.0 °F - -5.1 °F 69% 30.43 in 10.0 mi Calm Calm - N/A   Overcast
1:13 AM 3.0 °F -6.4 °F -4.0 °F 73% 30.26 in 10.0 mi North 4.6 mph - N/A   Overcast
1:53 AM 3.0 °F -4.4 °F -5.1 °F 69% 30.44 in 10.0 mi NW 3.5 mph - N/A   Overcast
3:36 AM 3.0 °F - -4.0 °F 73% 30.28 in 10.0 mi Calm Calm - N/A   Overcast
3:53 AM 3.0 °F -4.4 °F -4.0 °F 73% 30.45 in 10.0 mi NW 3.5 mph - N/A   Overcast
4:39 AM 3.0 °F - -4.0 °F 73% 30.28 in 10.0 mi Calm Calm - N/A   Overcast
4:53 AM 1.9 °F - -4.0 °F 76% 30.45 in 10.0 mi Calm Calm - N/A   Overcast
5:53 AM 1.9 °F - -4.0 °F 76% 30.45 in 10.0 mi Calm Calm - N/A   Overcast
6:53 AM 1.9 °F - -4.0 °F 76% 30.46 in 10.0 mi Calm Calm - N/A   Mostly Cloudy
7:53 AM -0.0 °F - -5.1 °F 79% 30.46 in 10.0 mi Calm Calm - N/A   Mostly Cloudy
8:53 AM -0.9 °F - -5.1 °F 83% 30.47 in 10.0 mi Calm Calm - N/A   Mostly Cloudy
9:53 AM 1.9 °F - -4.0 °F 76% 30.48 in 10.0 mi Calm Calm - N/A   Overcast
10:53 AM 1.9 °F - -2.0 °F 83% 30.48 in 10.0 mi Calm Calm - N/A   Overcast
11:53 AM 3.0 °F - -4.0 °F 73% 30.48 in 10.0 mi Calm Calm - N/A   Overcast
12:53 PM 3.9 °F - -2.0 °F 76% 30.47 in 10.0 mi Calm Calm - N/A   Overcast
1:53 PM 5.0 °F - -2.0 °F 73% 30.45 in 10.0 mi Calm Calm - N/A   Overcast
2:53 PM 3.9 °F - -2.0 °F 76% 30.44 in 10.0 mi Calm Calm - N/A   Mostly Cloudy
3:53 PM 5.0 °F - -2.0 °F 73% 30.41 in 10.0 mi Calm Calm - 0.00 in Snow Light Snow
4:53 PM 5.0 °F - -0.9 °F 76% 30.40 in 10.0 mi Calm Calm - 0.00 in   Mostly Cloudy
5:53 PM 5.0 °F - -0.9 °F 76% 30.38 in 10.0 mi Calm Calm - N/A   Overcast
6:53 PM 6.1 °F - -0.9 °F 73% 30.37 in 10.0 mi Calm Calm - N/A   Overcast
7:53 PM 7.0 °F 0.1 °F -2.0 °F 67% 30.34 in 10.0 mi North 3.5 mph - N/A   Overcast
8:53 PM 7.0 °F 0.1 °F -0.9 °F 70% 30.34 in 10.0 mi North 3.5 mph - N/A   Overcast
9:27 PM 7.0 °F - -2.9 °F 64% 30.14 in 10.0 mi Calm Calm - N/A   Overcast
9:53 PM 7.0 °F - -2.9 °F 64% 30.31 in 10.0 mi Calm Calm - N/A   Overcast
10:53 PM 7.0 °F - -2.0 °F 67% 30.30 in 10.0 mi Calm Calm - N/A   Overcast
11:53 PM 6.1 °F - -0.9 °F 73% 30.28 in 2.5 mi Calm Calm - 0.00 in Snow Light Snow